Weather History for KANJ - August, 2012

Change the Weather History Date:

Sunday, August 26, 2012

  Actual Average Record
Temperature  
Mean Temperature 73 °F 63 °F  
Max Temperature 80 °F 73 °F 92 °F (1948)
Min Temperature 65 °F 53 °F 38 °F (1917)
Degree Days  
Heating Degree Days 0 3  
Month to date heating degree days 32 58  
Since 1 June heating degree days 137 307  
Since 1 July heating degree days 37 127  
Cooling Degree Days 8 1  
Month to date cooling degree days 92 62  
Year to date cooling degree days 362 175  
Since 1 June cooling degree days 345 170  
Growing Degree Days 22 (Base 50)    
Moisture  
Dew Point 64 °F    
Average Humidity 76    
Maximum Humidity 93    
Minimum Humidity 58    
Precipitation  
Precipitation 0.33 in 0.10 in 1.26 in (2013)
Month to date precipitation 2.12 2.63  
Year to date precipitation 17.15 18.63  
Sea Level Pressure  
Sea Level Pressure 30.00 in    
Wind  
Wind Speed 4 mph (ESE)    
Max Wind Speed 12 mph    
Max Gust Speed 14 mph    
Visibility 5 miles    
Events Rain    
T = Trace of Precipitation, MM = Missing Value Source: NWS Daily Summary

Daily Weather History Graph

Daily Weather History Graph

Search for Another Location

Airport or City:

Trip Planner

Search our weather history database for the weather conditions in past years. The results will help you decide how hot, cold, wet, or windy it might be!

Date:

Astronomy

Aug. 26, 2012 Rise Set
Actual Time 6:50 AM EDT 8:26 PM EDT
Civil Twilight 6:18 AM EDT 8:58 PM EDT
Nautical Twilight 5:40 AM EDT 9:36 PM EDT
Astronomical Twilight 4:58 AM EDT 10:18 PM EDT
Moon 5:07 PM EDT (8/26) 1:18 AM EDT (8/26)
Length of Visible Light 14h 39m
Length of Day
13h 36m
Waxing Gibbous, 73% of the Moon is Illuminated
Aug 26
Waxing Gibbous
Aug 31
Full
Sep 8
Last Quarter
Sep 15
New
Sep 22
First Quarter

Hourly Weather History & Observations

Time (EDT) Temp. Dew Point Humidity Pressure Visibility Wind Dir Wind Speed Gust Speed Precip Events Conditions
12:55 AM 69.1 °F 61.0 °F 75% 30.03 in 8.0 mi ENE 3.5 mph - N/A   Clear
1:55 AM 68.0 °F 61.0 °F 78% 30.03 in 7.0 mi East 4.6 mph - N/A   Clear
2:55 AM 66.9 °F 61.0 °F 81% 30.03 in 6.0 mi East 3.5 mph - N/A   Haze
3:55 AM 66.0 °F 61.0 °F 84% 30.02 in 5.0 mi ENE 4.6 mph - N/A   Haze
4:55 AM 64.9 °F 62.1 °F 90% 30.02 in 4.0 mi ENE 3.5 mph - N/A   Partly Cloudy
5:55 AM 66.0 °F 62.1 °F 87% 30.02 in 4.0 mi ENE 3.5 mph - N/A   Partly Cloudy
6:55 AM 64.9 °F 62.1 °F 90% 30.03 in 4.0 mi ENE 3.5 mph - N/A   Clear
7:55 AM 66.0 °F 62.1 °F 87% 30.03 in 3.0 mi East 4.6 mph - N/A   Partly Cloudy
8:55 AM 69.1 °F 63.0 °F 81% 30.04 in 5.0 mi East 8.1 mph - N/A   Haze
9:55 AM 73.0 °F 63.0 °F 71% 30.03 in 7.0 mi Variable 6.9 mph - N/A   Clear
10:55 AM 73.9 °F 63.0 °F 68% 30.03 in 8.0 mi Variable 4.6 mph - N/A   Partly Cloudy
11:24 AM 70.0 °F 64.9 °F 84% 30.04 in 2.0 mi ENE 4.6 mph - 0.07 in Rain Heavy Rain
11:37 AM 71.1 °F 64.9 °F 81% 30.05 in 5.0 mi East 4.6 mph - 0.09 in Rain Light Rain
11:55 AM 72.0 °F 66.0 °F 81% 30.03 in 6.0 mi Calm Calm - 0.09 in   Haze
12:55 PM 73.9 °F 66.0 °F 76% 30.02 in 7.0 mi ESE 4.6 mph - N/A   Partly Cloudy
1:55 PM 77.0 °F 64.9 °F 66% 29.99 in 9.0 mi East 5.8 mph - N/A   Clear
2:55 PM 79.0 °F 62.1 °F 56% 29.99 in 10.0 mi South 5.8 mph - N/A   Clear
3:55 PM 75.0 °F 63.0 °F 66% 29.98 in 4.0 mi South 8.1 mph - 0.01 in Rain Light Rain
4:55 PM 72.0 °F 66.0 °F 81% 29.96 in 6.0 mi ENE 3.5 mph - 0.01 in Rain Light Rain
5:55 PM 71.1 °F 66.9 °F 87% 29.98 in 4.0 mi South 3.5 mph - 0.01 in Rain Light Rain
6:33 PM 70.0 °F 66.9 °F 90% 29.99 in 1.8 mi SW 3.5 mph - 0.02 in Rain Rain
6:45 PM 69.1 °F 66.9 °F 93% 29.98 in 0.8 mi Calm Calm - 0.10 in Rain Heavy Rain
6:55 PM 69.1 °F 66.0 °F 90% 29.98 in 0.8 mi SSE 4.6 mph - 0.19 in Rain Heavy Rain
7:02 PM 69.1 °F 66.0 °F 90% 29.98 in 1.8 mi East 3.5 mph - 0.02 in Rain Rain
7:09 PM 69.1 °F 66.0 °F 90% 29.97 in 3.0 mi Calm Calm - 0.02 in Rain Light Rain
7:55 PM 69.1 °F 66.0 °F 90% 29.95 in 3.0 mi Calm Calm - 0.02 in   Overcast
8:55 PM 69.1 °F 66.0 °F 90% 29.95 in 2.5 mi SE 4.6 mph - N/A   Overcast
9:42 PM 68.0 °F 66.0 °F 93% 29.96 in 3.0 mi SE 8.1 mph - N/A   Overcast
9:55 PM 68.0 °F 66.0 °F 93% 29.95 in 3.0 mi SE 6.9 mph - N/A   Mostly Cloudy
10:11 PM 68.0 °F 64.9 °F 90% 29.96 in 3.0 mi SE 8.1 mph - N/A   Mostly Cloudy
10:55 PM 66.9 °F 64.0 °F 90% 29.96 in 5.0 mi Calm Calm - N/A   Overcast
11:08 PM 66.9 °F 64.0 °F 90% 29.97 in 5.0 mi SSE 3.5 mph - N/A   Overcast
11:55 PM 66.9 °F 64.0 °F 90% 29.96 in 6.0 mi Calm Calm - N/A   Overcast